Regional Weather Roundup
Issued by NWS

Home | Current Version | Previous Version | Text Only | Print | Product List | Glossary On
Versions: 1 2 3 4 5 6 7 8 9 10 11 12 13 14 15 16 17 18 19 20 21 22 23 24 25 26 27 28 29 30 31 32 33 34 35 36 37 38 39 40 41 42 43 44 45 46 47 48 49 50
000
ASMX46 KSGX 260311
RWRMX

MEXICAN WEATHER ROUNDUP
NATIONAL WEATHER SERVICE SAN DIEGO CA
800 PM PDT MON JUL 25 2016

BAJA CALIFORNIA

CITY           SKY/WX    TMP DP  RH WIND       PRES   REMARKS
ENSENADA NW      N/A     71  32  24 W3        29.87R
LA PAZ         MOCLDY    81  72  74 S6        29.87R
MEXICALI       PTCLDY    99  61  28 SE8       29.73R HX  99
S.J. DEL CABO  PTCLDY    86  61  42 SW7       29.86R
TIJUANA        PTCLDY    73  61  64 W9        29.93R

NORTHWESTERN MEXICO

CITY           SKY/WX    TMP DP  RH WIND       PRES   REMARKS
CHIHUAHUA      MOCLDY    81  57  44 SE6       30.03R
CULIACAN       MOCLDY    88  77  70 CALM      29.84S HX 100
GUAYMAS          N/A    N/A N/A N/A MISG        N/A
HERMOSILLO     MOCLDY    91  73  55 S9        29.84R HX 100
JUAREZ         PTCLDY    95  52  23 E12       29.94R
LOS MOCHIS     MOCLDY    86  73  66 W9        29.83R

NORTHEASTERN MEXICO

CITY           SKY/WX    TMP DP  RH WIND       PRES   REMARKS
MONCLOVA         N/A    N/A N/A N/A MISG        N/A
MONTERREY      PTCLDY    90  57  33 E8        29.85R
REYNOSA        MOCLDY    82  72  69 SE12      29.87R
SALTILLO       PTCLDY    77  57  50 NE9       30.14R
TORREON        CLEAR     91  55  29 NE14      29.95R
VICTORIA         N/A    N/A N/A N/A MISG        N/A

WESTERN MEXICO

CITY           SKY/WX    TMP DP  RH WIND       PRES   REMARKS
AGUASCALIENTES PTCLDY    70  52  52 SE7       30.18R
COLIMA         MOCLDY    73  72  94 W8        30.01R
DURANGO        MOCLDY    66  54  63 SW14      30.22R
GUADALAJARA    CLOUDY    70  59  68 CALM      30.11S
MAZATLAN       MOCLDY    86  77  74 NW10      29.83R HX  97
PTO. VALLARTA  CLOUDY    84  77  79 CALM      29.85R
TEPIC          PTCLDY    72  70  94 N8        30.05R
URUAPAN          N/A    N/A N/A N/A MISG        N/A
ZACATECAS      MOCLDY    66  52  59 NE9       30.25

CENTRAL MEXICO

CITY           SKY/WX    TMP DP  RH WIND       PRES   REMARKS
CUERNAVACA       N/A    N/A N/A N/A MISG        N/A
LEON           MOCLDY    64  59  82 E7        30.24R
MEXICO CITY    LGT RAIN  59  55  88 SW8       30.33
MORELIA        CLOUDY    64  61  88 CALM      30.20R
POZA RICA        N/A    N/A N/A N/A MISG        N/A
QUERETARO      PTCLDY    68  55  64 E14       30.27R
S. LUIS POTOSI CLEAR     70  52  52 SE9       30.21R
TAMPICO        PTCLDY    84  75  74 SE12      29.90R
TOLUCA         TSTM      55  52  88 CALM      30.41R
VERACRUZ       MOCLDY    82  77  83 NE6       29.90R

SOUTHERN MEXICO

CITY           SKY/WX    TMP DP  RH WIND       PRES   REMARKS
ACAPULCO       MOCLDY    82  73  74 N6        29.88R
B. DE HUATULCO   N/A    N/A N/A N/A MISG        N/A
MINATITLAN       N/A    N/A N/A N/A MISG        N/A
PTO. ESCONDIDO   N/A    N/A N/A N/A MISG        N/A
TAPACHULA      PTCLDY    82  75  78 NW7       29.84R
TUX. GUTIERREZ PTCLDY    77  68  73 CALM      29.93R
VILLAHERMOSA   PTCLDY    84  73  70 E14       29.91R
ZIHUATANEJO      N/A    N/A N/A N/A MISG        N/A

YUCATAN PENINSULA

CITY           SKY/WX    TMP DP  RH WIND       PRES   REMARKS
CAMPECHE       PTCLDY    81  75  83 N12       29.93R
CANCUN         MOCLDY    82  79  89 NE5       29.99R
CHETUMAL       MOCLDY    84  77  79 CALM      29.96R
C. DEL CARMEN    N/A    N/A N/A N/A MISG        N/A
COZUMEL        PTCLDY    79  77  94 E3        29.98R
MERIDA         PTCLDY    82  75  78 NE8       29.96R

$$




USA.gov is the U.S. government's official web portal to all federal, state and local government web resources and services.